This is the latest recevied weather packets stored in our database for station/object KC0SIQ-13. If no packets are shown the sender has not sent any weather packets the latest 10 day(s).
| Time | Temp. | Humidity | Pressure | Rain* | Wind** | Luminosity | Snow |
|---|---|---|---|---|---|---|---|
| 1777737845 | 14.44° C | 36% | 1019.3 hPa | 0 mm | - | 46 W/m² | - |
| 1777737544 | 13.89° C | 36% | 1019.5 hPa | 0 mm | - | 46 W/m² | - |
| 1777737241 | 13.89° C | 36% | 1019.3 hPa | 0 mm | - | 46 W/m² | - |
| 1777736937 | 13.89° C | 36% | 1019.2 hPa | 0 mm | - | 46 W/m² | - |
| 1777736025 | 12.78° C | 39% | 1019.2 hPa | 0 mm | - | 44 W/m² | - |
| 1777735717 | 12.22° C | 39% | 1019.5 hPa | 0 mm | - | 43 W/m² | - |
| 1777735414 | 12.22° C | 41% | 1019.6 hPa | 0 mm | - | 42 W/m² | - |
| 1777735112 | 11.67° C | 40% | 1019.5 hPa | 0 mm | - | 41 W/m² | - |
| 1777734808 | 11.11° C | 42% | 1019.6 hPa | 0 mm | - | 40 W/m² | - |
| 1777734506 | 11.11° C | 43% | 1019.8 hPa | 0 mm | - | 39 W/m² | - |
| 1777734202 | 10.56° C | 43% | 1019.6 hPa | 0 mm | - | 39 W/m² | - |
| 1777733898 | 10.56° C | 43% | 1019.8 hPa | 0 mm | - | 38 W/m² | - |
| 1777733595 | 11.11° C | 44% | 1019.7 hPa | 0 mm | - | 36 W/m² | - |
| 1777733291 | 10.56° C | 45% | 1020.2 hPa | 0 mm | - | 36 W/m² | - |
| 1777732989 | 10° C | 45% | 1019.8 hPa | 0 mm | - | 350 W/m² | - |
| 1777732684 | 10° C | 46% | 1019.7 hPa | 0 mm | - | 361 W/m² | - |
| 1777732381 | 9.44° C | 46% | 1019.9 hPa | 0 mm | - | 337 W/m² | - |
| 1777732080 | 9.44° C | 47% | 1019.9 hPa | 0 mm | - | 305 W/m² | - |
| 1777731776 | 8.33° C | 49% | 1019.9 hPa | 0 mm | - | 263 W/m² | - |
| 1777731473 | 7.78° C | 51% | 1019.7 hPa | 0 mm | - | 251 W/m² | - |
| 1777731171 | 7.78° C | 52% | 1019.9 hPa | 0 mm | - | 173 W/m² | - |
| 1777730869 | 7.22° C | 52% | 1020 hPa | 0 mm | - | 38 W/m² | - |
| 1777730566 | 7.22° C | 52% | 1019.9 hPa | 0 mm | - | 31 W/m² | - |
| 1777730262 | 7.22° C | 52% | 1019.7 hPa | 0 mm | - | 29 W/m² | - |
| 1777729959 | 6.67° C | 53% | 1019.8 hPa | 0 mm | - | 32 W/m² | - |
* Rain latest hour (hover to see other rain measurements)
** Current wind speed in m/s (hover to see current wind gust speed)